Weather History for Cozumel, Mexico

Change the Weather History Date:

Sunday, September 30, 2012

  Actual Average Record
Temperature  
Mean Temperature 76 °F -  
Max Temperature 84 °F 87 °F 91 °F (1996)
Min Temperature 68 °F 75 °F 62 °F (2013)
Cooling Degree Days 11    
Growing Degree Days 26 (Base 50)    
Moisture  
Dew Point 66 °F    
Average Humidity 76    
Maximum Humidity 100    
Minimum Humidity 55    
Precipitation  
Precipitation 0.90 in - - ()
Sea Level Pressure  
Sea Level Pressure 29.82 in    
Wind  
Wind Speed 1 mph ()    
Max Wind Speed 8 mph    
Max Gust Speed -    
Visibility 7.2 miles    
Events      
Averages and records for this station are not official NWS values.
T = Trace of Precipitation, MM = Missing Value Source: Averaged Metar Reports

Daily Weather History Graph

Daily Weather History Graph

Search for Another Location

Airport:

Trip Planner

Search our weather history database for the weather conditions in past years. The results will help you decide how hot, cold, wet, or windy it might be!

Date:

Astronomy

Sep. 30, 2012 Rise Set
Actual Time 6:38 AM CDT 6:36 PM CDT
Civil Twilight 6:16 AM CDT 6:58 PM CDT
Nautical Twilight 5:50 AM CDT 7:23 PM CDT
Astronomical Twilight 5:25 AM CDT 7:49 PM CDT
Moon 6:53 PM CDT (9/30) 6:58 AM CDT (9/30)
Length of Visible Light 12h 41m
Length of Day
11h 57m
Full, 100% of the Moon is Illuminated
Sep 30
Full
Oct 8
Last Quarter
Oct 15
New
Oct 21
First Quarter
Oct 29
Full

Hourly Weather History & Observations

Time (CDT) Temp. Heat Index Dew Point Humidity Pressure Visibility Wind Dir Wind Speed Gust Speed Precip Events Conditions
12:52 AM 69.8 °F - 64.4 °F 83% 29.83 in 7.0 mi Calm Calm - N/A   Partly Cloudy
1:51 AM 69.8 °F - 64.4 °F 83% 29.85 in 7.0 mi Calm Calm - N/A   Partly Cloudy
2:58 AM 68.0 °F - 62.6 °F 83% 29.83 in 7.0 mi Calm Calm - N/A   Partly Cloudy
3:51 AM 68.0 °F - 60.8 °F 78% 29.89 in 7.0 mi Calm Calm - N/A   Scattered Clouds
4:48 AM 68.0 °F - 68.0 °F 100% 29.81 in 7.0 mi Calm Calm - N/A   Scattered Clouds
5:44 AM 68.0 °F - 68.0 °F 100% 29.81 in 7.0 mi Calm Calm - N/A   Scattered Clouds
6:43 AM 68.0 °F - 68.0 °F 100% 29.79 in 7.0 mi Calm Calm - N/A   Scattered Clouds
7:45 AM 71.6 °F - 69.8 °F 94% 29.83 in 8.0 mi Calm Calm - N/A   Mostly Cloudy
8:45 AM 78.8 °F - 68.0 °F 69% 29.84 in 8.0 mi East 5.8 mph - N/A   Mostly Cloudy
9:45 AM 80.6 °F 82.7 °F 66.2 °F 61% 29.88 in 8.0 mi ENE 3.5 mph - N/A   Mostly Cloudy
10:42 AM 82.4 °F 84.6 °F 66.2 °F 58% 29.86 in 8.0 mi ENE 5.8 mph - N/A   Mostly Cloudy
11:52 AM 80.6 °F 82.7 °F 66.2 °F 61% 29.86 in 7.0 mi ENE 5.8 mph - N/A   Mostly Cloudy
12:44 PM 80.6 °F 82.7 °F 66.2 °F 61% 29.81 in 7.0 mi NE 8.1 mph - N/A   Mostly Cloudy
1:50 PM 84.2 °F 86.6 °F 66.2 °F 55% 29.81 in 7.0 mi ENE 8.1 mph - N/A   Mostly Cloudy
2:50 PM 82.4 °F 84.6 °F 66.2 °F 58% 29.79 in 7.0 mi East 6.9 mph - N/A   Mostly Cloudy
3:52 PM 78.8 °F - 68.0 °F 69% 29.80 in 7.0 mi East 3.5 mph - N/A   Mostly Cloudy
4:55 PM 78.8 °F - 66.2 °F 65% 29.77 in 7.0 mi SE 3.5 mph - N/A   Mostly Cloudy
5:52 PM 78.8 °F - 66.2 °F 65% 29.77 in 7.0 mi Calm Calm - N/A   Scattered Clouds
6:52 PM 75.2 °F - 68.0 °F 78% 29.74 in 7.0 mi Calm Calm - N/A   Scattered Clouds
7:52 PM 71.6 °F - 66.2 °F 83% 29.79 in 7.0 mi Calm Calm - N/A   Scattered Clouds
8:44 PM 71.6 °F - 64.4 °F 78% 29.81 in 7.0 mi Calm Calm - N/A   Scattered Clouds
9:51 PM 71.6 °F - 66.2 °F 83% 29.85 in 7.0 mi Calm Calm - N/A   Partly Cloudy
10:56 PM 69.8 °F - 62.6 °F 78% 29.83 in 7.0 mi Calm Calm - N/A   Partly Cloudy
11:45 PM 68.0 °F - 62.6 °F 83% 29.83 in 7.0 mi Calm Calm - N/A   Clear